Content
SEND FEEDBACK

Daily
Averages
Monthly
Summary
Mexico

PUEBLA - JARDINES DE SAN MANUEL, PUEBLA


Home > North America > Mexico > Puebla
Elevation: 6962 feet     Latitude: 19 00N     Longitude: 098 11W

WEATHER
 
SELECT A DAY
Number of Records: 123,312;   Date Range: 1/1/95 - 9/30/14
 
SHARE

PRINT THIS DATA

[ ← Previous Day ]
WEATHER ALMANAC - MARCH 20, 2013
[ Next Day → ]
[ °C ]   °F
Weather ElementAverageHighLow
Temperature64.4 °F81 °F (2:40 pm)44.6 °F (5:03 am)
Dewpoint35.4 °F44.6 °F (8:43 pm)26.6 °F (12:45 pm)
Humidity35.5 %67 % (10:53 pm)11 % (2:40 pm)
Barometer30.14 in30.35 in (9:41 am)29.60 in (5:40 pm)
Wind Speed6.2 mph20.7 mph (2:42 pm)
Weather ElementAverage
Visibility7.2 mi
Wind DirectionSSW (189.5 °)

Weather ElementTotal
Precipitation---
Heating Degree Days2.2 (Base 65)
Growing Degree Days12.8 (Base 50)
Averaged from 26 records on March 20, 2013
WEATHER CONDITIONS BREAKOUT
WIND DIRECTION BREAKOUT
WEATHER BY HOUR - MARCH 20, 2013
[ °C ]   °F
Local TimeTemperatureDewpointHumidityBarometerVisibilityWind DirectionWind SpeedGust SpeedPrecipitationEventsConditions
5:03 AM44.6 °F32.0 °F61 %30.28 in10.0 miNNW (340°)6.9 mphScattered Clouds
5:49 AM46.4 °F32.0 °F57 %30.30 in8.0 miNNW (330°)8.1 mphScattered Clouds
5:50 AM51.0 °F35.0 °F42 %29.85 in3.0 miCalmClear
6:50 AM44.6 °F33.8 °F66 %30.32 in8.0 miNNW (330°)6.9 mphScattered Clouds
7:45 AM50.0 °F33.8 °F54 %30.34 in8.0 miNW (320°)6.9 mphScattered Clouds
8:50 AM59.0 °F37.4 °F45 %30.34 in8.0 miCalmMostly Cloudy
8:50 AM61.0 °F39.0 °F33 %29.95 in3.0 miCalmHaze
9:41 AM66.2 °F35.6 °F32 %30.35 in8.0 miCalmMostly Cloudy
10:47 AM71.6 °F33.8 °F25 %30.34 in8.0 miCalmMostly Cloudy
11:45 AM77.0 °F33.8 °F21 %30.31 in8.0 miEast (90°)5.8 mphMostly Cloudy
11:50 AM76.0 °F40.0 °F17 %29.89 in6.0 miSSW (210°)2.2 mphHaze
12:45 PM77.0 °F26.6 °F16 %30.27 in8.0 miNW (320°)6.9 mphMostly Cloudy
1:40 PM78.8 °F26.6 °F15 %30.23 in8.0 miESE (120°)6.9 mphMostly Cloudy
2:40 PM81.0 °F36.0 °F11 %29.70 in9.0 miSouth (180°)2.2 mphHaze
2:42 PM80.6 °F30.2 °F16 %30.20 in8.0 miSSW (200°)20.7 mphMostly Cloudy
3:46 PM77.0 °F30.2 °F18 %30.19 in8.0 miSouth (180°)18.4 mphMostly Cloudy
4:54 PM75.2 °F30.2 °F19 %30.19 in8.0 miSouth (180°)17.3 mphMostly Cloudy
5:40 PM59.0 °F36.0 °F30 %29.60 in6.0 miSouth (180°)2.2 mphHaze
5:40 PM73.4 °F30.2 °F20 %30.20 in8.0 miSouth (190°)12.7 mphMostly Cloudy
6:41 PM68.0 °F42.8 °F40 %30.23 in8.0 miNE (40°)9.2 mphMostly Cloudy
7:40 PM62.6 °F42.8 °F48 %30.26 in8.0 miNorth (10°)9.2 mphMostly Cloudy
8:43 PM59.0 °F44.6 °F59 %30.30 in8.0 miNNW (340°)9.2 mphScattered Clouds
8:56 PM67.0 °F36.0 °F21 %29.60 in3.0 miCalmPartly Cloudy
9:56 PM55.4 °F42.8 °F63 %30.31 in8.0 miNW (320°)5.8 mphPartly Cloudy
10:53 PM53.6 °F42.8 °F67 %30.31 in8.0 miWNW (290°)3.5 mphPartly Cloudy
11:58 PM60.0 °F36.0 °F28 %29.70 in3.0 miCalm
Hourly data recorded from MMPB, located miles away from Puebla - Jardines de San Manuel, Puebla







STORIES FROM OUR PARTNERS